Regional Weather Roundup
Issued by NWS Jackson, KY

Home | Current Version | Previous Version | Graphics & Text | Print | Product List | Glossary On
Versions: 1 2 3 4 5 6 7 8 9 10 11 12 13 14 15 16 17 18 19 20 21 22 23 24 25 26 27 28 29 30 31 32 33 34 35 36 37 38 39 40 41 42 43 44 45 46 47 48 49 50
000
ASUS43 KJKL 041410
RWRJKL

EAST KENTUCKY HOURLY WEATHER ROUNDUP
NATIONAL WEATHER SERVICE JACKSON KY
1000 AM EDT SAT JUL 04 2015

NOTE: "FAIR" INDICATES FEW OR NO CLOUDS BELOW 12,000 FEET WITH
NO SIGNIFICANT WEATHER AND/OR OBSTRUCTIONS TO VISIBILITY.

* THESE REPORTS ARE NOT UNDER NWS QUALITY CONTROL AND MAY NOT
  REPORT WEATHER SUCH AS PRECIPITATION AND FOG.

KYZ079-080-083-085-087-088-110-112-115-119-120-041500
...EASTERN KENTUCKY...

CITY           SKY/WX    TMP DP  RH WIND       PRES   REMARKS
JACKSON        CLOUDY    69  66  90 CALM      30.01R
LONDON         PTSUNNY   74  65  73 W6        30.02R
SOMERSET*      CLOUDY    72  68  88 NW3       30.02S
MONTICELLO*    PTSUNNY   72  72 100 CALM      30.04R
MIDDLESBORO*   LGT RAIN  69  68  96 CALM      30.03R
HARLAN APT*      N/A     68  68 100 CALM      30.04R
HAZARD APT*    PTSUNNY   73  68  83 W6        30.01S
BLACK MTN*       N/A     61  61 100 S2          N/A
PIKEVILLE APT* RAIN      68  66  94 W7        30.01R
BIG SANDY*     CLOUDY    69  68  96 W3        30.00S
MOREHEAD APT*  PTSUNNY   70  66  88 NW3       30.03R
$$

KYZ035-036-041-042-044-050-067-078-099-041500
...CENTRAL KENTUCKY...

CITY           SKY/WX    TMP DP  RH WIND       PRES   REMARKS
MT STERLING*   CLOUDY    68  68 100 CALM      30.02S FOG
FLEMING/MASON* CLOUDY    70  64  83 CALM      30.02R
DANVILLE*      CLOUDY    70  68  94 CALM      30.02S
RICHMOND*      CLOUDY    70  66  88 CALM      30.00F
LEXINGTON      CLOUDY    71  66  84 N3        30.01R HAZE
FRANKFORT      CLOUDY    70  65  84 CALM      30.00S
$$

KYZ091>093-OHZ055-061-077-WVZ005-015-034-035-042-041500
...SOUTHERN OHIO/WEST VIRGINIA...

CITY           SKY/WX    TMP DP  RH WIND       PRES   REMARKS
COVINGTON      MOSUNNY   72  60  66 NE6       30.01R
COLUMBUS       SUNNY     69  60  73 N8        29.98R
DAYTON         SUNNY     70  57  63 N5        30.02R
WILMINGTON     SUNNY     70  53  54 N8        30.00R
HUNTINGTON     CLOUDY    70  66  87 CALM      29.98R
CHARLESTON     CLOUDY    69  65  86 NW5       29.98R FOG
PINEVILLE*     CLOUDY    70  68  95 MISG      30.06R
BECKLEY        CLOUDY    66  63  90 SW9       30.03R
BLUEFIELD      CLOUDY    69  63  81 W12       30.06R
$$

VAZ002-007-008-TNZ017-027-036-066-071-041500
...SOUTHWEST VIRGINIA/EAST TENNESSEE...

CITY           SKY/WX    TMP DP  RH WIND       PRES   REMARKS
WISE*          CLOUDY    68  68 100 W6        30.08S
JONESVILLE*      N/A    N/A N/A N/A MISG        N/A
ABINGDON*      CLOUDY    69  68  97 W5        30.06R
BRISTOL        CLOUDY    71  67  87 SW12      30.04R
KNOXVILLE      CLOUDY    71  67  87 SW14      30.03R
OAK RIDGE      CLOUDY    72  68  87 CALM      30.03S
CROSSVILLE     CLOUDY    69  66  90 SW5       30.07R
NASHVILLE      CLOUDY    75  71  87 W5        30.01R
$$

...KEY TO REMARKS...
VSB - VISIBILITY IN MILES
WCI - WIND CHILL INDEX
HX  - HEAT INDEX

$$


USA.gov is the U.S. government's official web portal to all federal, state and local government web resources and services.